Time,TemperatureF,DewpointF,PressureIn,WindDirection,WindDirectionDegrees,WindSpeedMPH,WindSpeedGustMPH,Humidity,HourlyPrecipIn,Conditions,Clouds,dailyrainin,SoftwareType,DateUTC
2013-09-26 00:05:00,47.0,20.7,29.97,WNW,292,5.0,10.0,35,0.00,,,0.00,Weather View 32 v70,2013-09-26 04:05:00,
2013-09-26 00:32:00,47.0,14.7,29.99,NW,315,6.0,10.0,27,0.00,,,0.00,Weather View 32 v70,2013-09-26 04:32:00,
2013-09-26 01:02:00,46.0,11.2,29.99,WNW,292,6.0,9.0,24,0.00,,,0.00,Weather View 32 v70,2013-09-26 05:02:00,
2013-09-26 01:07:00,46.0,11.2,29.99,WNW,292,6.0,9.0,24,0.00,,,0.00,Weather View 32 v70,2013-09-26 05:07:00,
2013-09-26 01:34:00,46.0,4.8,30.00,WNW,292,6.0,9.0,18,0.00,,,0.00,Weather View 32 v70,2013-09-26 05:34:00,
2013-09-26 02:02:00,46.0,-0.6,30.00,WSW,247,1.0,10.0,14,0.00,,,0.00,Weather View 32 v70,2013-09-26 06:02:00,
2013-09-26 02:08:00,46.0,-0.6,30.00,WSW,247,1.0,10.0,14,0.00,,,0.00,Weather View 32 v70,2013-09-26 06:08:00,
2013-09-26 02:32:00,46.0,-14.8,30.00,SW,225,4.0,10.0,7,0.00,,,0.00,Weather View 32 v70,2013-09-26 06:32:00,
2013-09-26 03:00:00,47.0,-14.0,30.00,WSW,247,6.0,7.0,7,0.00,,,0.00,Weather View 32 v70,2013-09-26 07:00:00,
2013-09-26 03:04:00,47.0,-14.0,30.00,WSW,247,6.0,7.0,7,0.00,,,0.00,Weather View 32 v70,2013-09-26 07:04:00,
2013-09-26 03:32:00,48.0,2.5,29.99,WNW,292,3.0,7.0,15,0.00,,,0.00,Weather View 32 v70,2013-09-26 07:32:00,
2013-09-26 04:00:00,48.0,8.8,29.99,WSW,247,6.0,7.0,20,0.00,,,0.00,Weather View 32 v70,2013-09-26 08:00:00,
2013-09-26 04:04:00,48.0,8.8,29.99,WSW,247,6.0,7.0,20,0.00,,,0.00,Weather View 32 v70,2013-09-26 08:04:00,
2013-09-26 04:33:00,47.0,5.6,29.99,WNW,292,5.0,6.0,18,0.00,,,0.00,Weather View 32 v70,2013-09-26 08:33:00,
2013-09-26 05:00:00,47.0,-14.0,30.00,WNW,292,5.0,6.0,7,0.00,,,0.00,Weather View 32 v70,2013-09-26 09:00:00,
2013-09-26 05:03:00,47.0,-14.0,30.00,WNW,292,5.0,6.0,7,0.00,,,0.00,Weather View 32 v70,2013-09-26 09:03:00,
2013-09-26 05:31:00,48.0,-6.1,30.01,West,270,3.0,7.0,10,0.00,,,0.00,Weather View 32 v70,2013-09-26 09:31:00,
2013-09-26 06:00:00,47.0,-11.4,30.01,West,270,3.0,7.0,8,0.00,,,0.00,Weather View 32 v70,2013-09-26 10:00:00,
2013-09-26 06:03:00,47.0,-11.4,30.01,West,270,3.0,7.0,8,0.00,,,0.00,Weather View 32 v70,2013-09-26 10:03:00,
2013-09-26 06:31:00,47.0,-37.3,30.02,NW,315,4.0,6.0,2,0.00,,,0.00,Weather View 32 v70,2013-09-26 10:31:00,
2013-09-26 07:00:00,49.0,-28.7,30.03,West,270,2.0,7.0,3,0.00,,,0.00,Weather View 32 v70,2013-09-26 11:00:00,
2013-09-26 07:03:00,49.0,-28.7,30.03,West,270,2.0,7.0,3,0.00,,,0.00,Weather View 32 v70,2013-09-26 11:03:00,
2013-09-26 07:33:00,52.0,29.0,30.02,NW,315,1.0,7.0,41,0.00,,,0.00,Weather View 32 v70,2013-09-26 11:33:00,
2013-09-26 08:01:00,52.0,34.4,30.02,NNW,337,1.0,7.0,51,0.00,,,0.00,Weather View 32 v70,2013-09-26 12:01:00,
2013-09-26 08:34:00,54.0,45.9,30.02,NNW,337,6.0,15.0,74,0.00,,,0.00,Weather View 32 v70,2013-09-26 12:34:00,
2013-09-26 09:01:00,54.0,48.0,30.02,NNW,337,12.0,23.0,80,0.00,,,0.00,Weather View 32 v70,2013-09-26 13:01:00,
2013-09-26 09:32:00,55.0,48.9,30.02,NNW,337,5.0,23.0,80,0.00,,,0.00,Weather View 32 v70,2013-09-26 13:32:00,
2013-09-26 10:02:00,55.0,48.9,30.03,NW,315,5.0,19.0,80,0.00,,,0.00,Weather View 32 v70,2013-09-26 14:02:00,
2013-09-26 10:33:00,57.0,53.2,30.01,NW,315,9.0,18.0,87,0.00,,,0.00,Weather View 32 v70,2013-09-26 14:33:00,
2013-09-26 11:02:00,58.0,54.8,30.01,NNW,337,12.0,23.0,89,0.00,,,0.00,Weather View 32 v70,2013-09-26 15:02:00,
2013-09-26 11:32:00,59.0,55.8,30.01,NW,315,7.0,23.0,89,0.00,,,0.00,Weather View 32 v70,2013-09-26 15:32:00,
2013-09-26 12:01:00,59.0,56.1,30.00,NW,315,13.0,22.0,90,0.00,,,0.00,Weather View 32 v70,2013-09-26 16:01:00,
2013-09-26 12:32:00,60.0,56.7,30.00,NNW,337,10.0,22.0,89,0.00,,,0.00,Weather View 32 v70,2013-09-26 16:32:00,
2013-09-26 12:38:00,60.0,56.7,30.00,NNW,337,10.0,22.0,89,0.00,,,0.00,Weather View 32 v70,2013-09-26 16:38:00,
2013-09-26 13:02:00,60.0,56.4,30.00,NNW,337,16.0,20.0,88,0.00,,,0.00,Weather View 32 v70,2013-09-26 17:02:00,
2013-09-26 13:33:00,63.0,57.4,29.98,NNW,337,10.0,20.0,82,0.00,,,0.00,Weather View 32 v70,2013-09-26 17:33:00,
2013-09-26 13:39:00,63.0,57.4,29.98,NNW,337,10.0,20.0,82,0.00,,,0.00,Weather View 32 v70,2013-09-26 17:39:00,
2013-09-26 14:30:00,62.0,57.8,29.99,NNW,337,13.0,20.0,86,0.00,,,0.00,Weather View 32 v70,2013-09-26 18:30:00,
2013-09-26 14:34:00,62.0,57.8,29.99,NNW,337,13.0,20.0,86,0.00,,,0.00,Weather View 32 v70,2013-09-26 18:34:00,
2013-09-26 15:01:00,62.0,58.7,29.99,WNW,292,7.0,18.0,89,0.00,,,0.00,Weather View 32 v70,2013-09-26 19:01:00,
2013-09-26 15:30:00,62.0,58.4,29.99,NW,315,4.0,18.0,88,0.00,,,0.00,Weather View 32 v70,2013-09-26 19:30:00,
2013-09-26 15:31:00,62.0,58.4,29.99,NW,315,4.0,18.0,88,0.00,,,0.00,Weather View 32 v70,2013-09-26 19:31:00,
2013-09-26 16:01:00,62.0,58.1,29.99,NNW,337,6.0,19.0,87,0.00,,,0.00,Weather View 32 v70,2013-09-26 20:01:00,
2013-09-26 16:30:00,61.0,58.3,30.00,NW,315,9.0,21.0,91,0.00,,,0.00,Weather View 32 v70,2013-09-26 20:30:00,
2013-09-26 16:31:00,61.0,58.3,30.00,NW,315,9.0,21.0,91,0.00,,,0.00,Weather View 32 v70,2013-09-26 20:31:00,
2013-09-26 17:01:00,60.0,58.3,30.01,WNW,292,5.0,21.0,94,0.00,,,0.00,Weather View 32 v70,2013-09-26 21:01:00,
2013-09-26 17:30:00,59.0,57.6,30.04,WNW,292,4.0,20.0,95,0.00,,,0.00,Weather View 32 v70,2013-09-26 21:30:00,
2013-09-26 17:31:00,59.0,57.6,30.04,WNW,292,4.0,20.0,95,0.00,,,0.00,Weather View 32 v70,2013-09-26 21:31:00,
2013-09-26 18:01:00,58.0,56.6,30.05,NNW,337,7.0,16.0,95,0.00,,,0.00,Weather View 32 v70,2013-09-26 22:01:00,
2013-09-26 18:30:00,57.0,55.3,30.06,NW,315,7.0,16.0,94,0.00,,,0.00,Weather View 32 v70,2013-09-26 22:30:00,
2013-09-26 18:32:00,57.0,55.3,30.06,NW,315,7.0,16.0,94,0.00,,,0.00,Weather View 32 v70,2013-09-26 22:32:00,
2013-09-26 19:03:00,57.0,55.0,30.07,NW,315,6.0,16.0,93,0.00,,,0.00,Weather View 32 v70,2013-09-26 23:03:00,
2013-09-26 19:30:00,56.0,53.4,30.07,NW,315,7.0,10.0,91,0.00,,,0.00,Weather View 32 v70,2013-09-26 23:30:00,
2013-09-26 19:33:00,56.0,53.4,30.07,NW,315,7.0,10.0,91,0.00,,,0.00,Weather View 32 v70,2013-09-26 23:33:00,
2013-09-26 20:04:00,56.0,51.5,30.09,WNW,292,5.0,12.0,85,0.00,,,0.00,Weather View 32 v70,2013-09-27 00:04:00,
2013-09-26 20:30:00,55.0,50.2,30.09,NW,315,7.0,13.0,84,0.00,,,0.00,Weather View 32 v70,2013-09-27 00:30:00,
2013-09-26 20:35:00,55.0,50.2,30.09,NW,315,7.0,13.0,84,0.00,,,0.00,Weather View 32 v70,2013-09-27 00:35:00,
2013-09-26 21:01:00,55.0,50.2,30.09,NNW,337,7.0,13.0,84,0.00,,,0.00,Weather View 32 v70,2013-09-27 01:01:00,
2013-09-26 21:30:00,55.0,49.6,30.10,WNW,292,9.0,13.0,82,0.00,,,0.00,Weather View 32 v70,2013-09-27 01:30:00,
2013-09-26 21:32:00,55.0,49.6,30.10,WNW,292,9.0,13.0,82,0.00,,,0.00,Weather View 32 v70,2013-09-27 01:32:00,
2013-09-26 22:03:00,55.0,50.2,30.10,NNW,337,9.0,15.0,84,0.00,,,0.00,Weather View 32 v70,2013-09-27 02:03:00,
2013-09-26 22:30:00,55.0,49.3,30.10,NNW,337,8.0,15.0,81,0.00,,,0.00,Weather View 32 v70,2013-09-27 02:30:00,
2013-09-26 22:33:00,55.0,49.3,30.10,NNW,337,8.0,15.0,81,0.00,,,0.00,Weather View 32 v70,2013-09-27 02:33:00,
2013-09-26 23:04:00,55.0,49.3,30.10,NNW,337,8.0,15.0,81,0.00,,,0.00,Weather View 32 v70,2013-09-27 03:04:00,
2013-09-26 23:35:00,55.0,49.6,30.11,NW,315,7.0,15.0,82,0.00,,,0.00,Weather View 32 v70,2013-09-27 03:35:00,